ONEWEB-0165, 48233

Orbit data source: Space-Track

ONEWEB-0165, 48233 is a payload satellite owned by One Web (NAA) (UK) in LEO that was launched on Sun, 25 Apr 2021 UTC via a SOYUZ-2-1B launch vehicle from the Vostochny Cosmodrome (VOSTO). Payload-class satellites include a variety of spacecraft equipped with specific instruments for various scientific and technological missions. These include communications satellites like Starlink; space stations such as the ISS; scientific satellites like the Hubble; Earth observation satellites from companies like Planet Labs, Umbra, and HawkEye 360; GPS; miniature CubeSats for education and research; and military/defense satellites.

Loading next visibility...
Identifier
48233, 2021-031Z
Orbit
LEO
Country
Flag of UKUK
Related business
Manufacturer
One Web
Mission
Operational Commercial Communications
Bus & Motor
ARROW, Unknown motor
Mass
148 kg wet, ~140 kg dry
Launch date (UTC)
2021-04-25 (5 years ago)
Launch vehicle
SOYUZ-2-1B
Launch site
Vostochny Cosmodrome (VOSTO)
Object type
Payload
Rocket body
Debris
Shape & HBR
Trap Box + 2 Pan, 6.7 m
Radar Cross Section
3.464 m², Large (>1 m²)

Expand to show TLE details & history
Last TLE update: 19 hours ago

TLE from 19 hours ago
0 ONEWEB-0165
1 48233U 21031Z   26094.13858722 -.00000149  00000-0 -43632-3 0  9991
2 48233  87.8943 304.4910 0001905  77.5784 282.5558 13.14503689238632
Epoch: 2026-04-04T03:19Z
TLE epoch observation values (Epoch: 2026-04-04T03:19:33.935Z)
Latitude
-0.00012°
Longitude
62.13694°
Altitude
1,208.367 km
Speed
7.25 km/s
True Right ascension
20h 17m 57s
True Declination
0° 00' 00"
Sunlit
Object was in daylight at epoch
Visualization orbit readout
Latitude
Unknown
Longitude
Unknown
Altitude
Unknown
Speed
Unknown
Apparent Right ascension
Unknown
Apparent Declination
Unknown
Sunlit
N/A
Visualization observer readout
Local Sidereal Time
04:04:23
Azimuth
Unknown
Elevation
Unknown
Doppler factor
Unknown
Orbital elements
Apogee altitude
1,204.345 km
Perigee altitude
1,201.456 km
Semi-major axis
7,581.038 km
Eccentricity
0.00019
Inclination
87.8943°
RAAN
304.491°
Arg. of periapsis
77.5784°
True anomaly
282.53449°
Mean anomaly
282.5558°
Eccentric anomaly
282.54515°
Mean motion
3.28814 °/min
Orbital period
109.48 mins
BSTAR
-0.00043632
Loading maneuver chart data...
Computing Atmospheric mass density...
Loading historical data...
Loading historical data...
Loading historical data...
Loading historical data...
Loading historical data...
Loading historical data...
Loading historical data...

Documentation

Showing up to 5 results
|